Year,Month,Day,Hour,Minute,Value (Times are PST for temperature in C)
2011,06,24,00,00,11.40
2011,06,24,00,01,11.40
2011,06,24,00,02,11.40
2011,06,24,00,03,11.50
2011,06,24,00,04,11.50
2011,06,24,00,05,11.50
2011,06,24,00,06,11.50
2011,06,24,00,07,11.50
2011,06,24,00,08,11.50
2011,06,24,00,09,11.50
2011,06,24,00,10,11.60
2011,06,24,00,11,11.60
2011,06,24,00,12,11.60
2011,06,24,00,13,11.60
2011,06,24,00,14,11.60
2011,06,24,00,15,11.60
2011,06,24,00,16,11.60
2011,06,24,00,17,11.60
2011,06,24,00,18,11.60
2011,06,24,00,19,11.60
2011,06,24,00,20,11.60
2011,06,24,00,21,11.60
2011,06,24,00,22,11.60
2011,06,24,00,23,11.60
2011,06,24,00,24,11.60
2011,06,24,00,25,11.60
2011,06,24,00,26,11.70
2011,06,24,00,27,11.60
2011,06,24,00,28,11.70
2011,06,24,00,29,11.70
2011,06,24,00,30,11.70
2011,06,24,00,31,11.70
2011,06,24,00,32,11.70
2011,06,24,00,33,11.70
2011,06,24,00,34,11.70
2011,06,24,00,35,11.70
2011,06,24,00,36,11.70
2011,06,24,00,37,11.70
2011,06,24,00,38,11.70
2011,06,24,00,39,11.70
2011,06,24,00,40,11.70
2011,06,24,00,41,11.70
2011,06,24,00,42,11.70
2011,06,24,00,43,11.70
2011,06,24,00,44,11.70
2011,06,24,00,45,11.70
2011,06,24,00,46,11.70
2011,06,24,00,47,11.70
2011,06,24,00,48,11.70
2011,06,24,00,49,11.70
2011,06,24,00,50,11.70
2011,06,24,00,51,11.70
2011,06,24,00,52,11.70
2011,06,24,00,53,11.70
2011,06,24,00,54,11.70
2011,06,24,00,55,11.60
2011,06,24,00,56,11.60
2011,06,24,00,57,11.60
2011,06,24,00,58,11.60
2011,06,24,00,59,11.50
2011,06,24,01,00,11.40
2011,06,24,01,01,11.40
2011,06,24,01,02,11.40
2011,06,24,01,03,11.30
2011,06,24,01,04,11.30
2011,06,24,01,05,11.30
2011,06,24,01,06,11.30
2011,06,24,01,07,11.30
2011,06,24,01,08,11.30
2011,06,24,01,09,11.20
2011,06,24,01,10,11.20
2011,06,24,01,11,11.30
2011,06,24,01,12,11.30
2011,06,24,01,13,11.30
2011,06,24,01,14,11.30
2011,06,24,01,15,11.30
2011,06,24,01,16,11.30
2011,06,24,01,17,11.30
2011,06,24,01,18,11.40
2011,06,24,01,19,11.40
2011,06,24,01,20,11.40
2011,06,24,01,21,11.40
2011,06,24,01,22,11.50
2011,06,24,01,23,11.50
2011,06,24,01,24,11.50
2011,06,24,01,25,11.60
2011,06,24,01,26,11.60
2011,06,24,01,27,11.60
2011,06,24,01,28,11.60
2011,06,24,01,29,11.60
2011,06,24,01,30,11.60
2011,06,24,01,31,11.60
2011,06,24,01,32,11.60
2011,06,24,01,33,11.60
2011,06,24,01,34,11.70
2011,06,24,01,35,11.70
2011,06,24,01,36,11.70
2011,06,24,01,37,11.70
2011,06,24,01,38,11.70
2011,06,24,01,39,11.70
2011,06,24,01,40,11.70
2011,06,24,01,41,11.70
2011,06,24,01,42,11.70
2011,06,24,01,43,11.60
2011,06,24,01,44,11.60
2011,06,24,01,45,11.60
2011,06,24,01,46,11.60
2011,06,24,01,47,11.60
2011,06,24,01,48,11.50
2011,06,24,01,49,11.50
2011,06,24,01,50,11.40
2011,06,24,01,51,11.40
2011,06,24,01,52,11.40
2011,06,24,01,53,11.40
2011,06,24,01,54,11.30
2011,06,24,01,55,11.30
2011,06,24,01,56,11.30
2011,06,24,01,57,11.30
2011,06,24,01,58,11.20
2011,06,24,01,59,11.20
2011,06,24,02,00,11.20
2011,06,24,02,01,11.20
2011,06,24,02,02,11.10
2011,06,24,02,03,11.10
2011,06,24,02,04,11.10
2011,06,24,02,05,11.00
2011,06,24,02,06,11.00
2011,06,24,02,07,10.90
2011,06,24,02,08,10.90
2011,06,24,02,09,10.90
2011,06,24,02,10,10.90
2011,06,24,02,11,10.80
2011,06,24,02,12,10.80
2011,06,24,02,13,10.80
2011,06,24,02,14,10.80
2011,06,24,02,15,10.80
2011,06,24,02,16,10.80
2011,06,24,02,17,10.80
2011,06,24,02,18,10.80
2011,06,24,02,19,10.80
2011,06,24,02,20,10.80
2011,06,24,02,21,10.80
2011,06,24,02,22,10.80
2011,06,24,02,23,10.80
2011,06,24,02,24,10.80
2011,06,24,02,25,10.80
2011,06,24,02,26,10.80
2011,06,24,02,27,10.80
2011,06,24,02,28,10.80
2011,06,24,02,29,10.80
2011,06,24,02,30,10.80
2011,06,24,02,31,10.80
2011,06,24,02,32,10.70
2011,06,24,02,33,10.70
2011,06,24,02,34,10.70
2011,06,24,02,35,10.70
2011,06,24,02,36,10.70
2011,06,24,02,37,10.70
2011,06,24,02,38,10.60
2011,06,24,02,39,10.60
2011,06,24,02,40,10.60
2011,06,24,02,41,10.50
2011,06,24,02,42,10.40
2011,06,24,02,43,10.40
2011,06,24,02,44,10.40
2011,06,24,02,45,10.40
2011,06,24,02,46,10.40
2011,06,24,02,47,10.30
2011,06,24,02,48,10.30
2011,06,24,02,49,10.30
2011,06,24,02,50,10.30
2011,06,24,02,51,10.30
2011,06,24,02,52,10.20
2011,06,24,02,53,10.20
2011,06,24,02,54,10.20
2011,06,24,02,55,10.20
2011,06,24,02,56,10.10
2011,06,24,02,57,10.10
2011,06,24,02,58,10.10
2011,06,24,02,59,10.10
2011,06,24,03,00,10.00
2011,06,24,03,01,10.00
2011,06,24,03,02,9.90
2011,06,24,03,03,9.90
2011,06,24,03,04,9.90
2011,06,24,03,05,9.90
2011,06,24,03,06,9.90
2011,06,24,03,07,9.90
2011,06,24,03,08,9.90
2011,06,24,03,09,9.80
2011,06,24,03,10,9.80
2011,06,24,03,11,9.80
2011,06,24,03,12,9.80
2011,06,24,03,13,9.80
2011,06,24,03,14,9.80
2011,06,24,03,15,9.70
2011,06,24,03,16,9.70
2011,06,24,03,17,9.70
2011,06,24,03,18,9.70
2011,06,24,03,19,9.70
2011,06,24,03,20,9.70
2011,06,24,03,21,9.70
2011,06,24,03,22,9.70
2011,06,24,03,23,9.70
2011,06,24,03,24,9.70
2011,06,24,03,25,9.70
2011,06,24,03,26,9.70
2011,06,24,03,27,9.70
2011,06,24,03,28,9.70
2011,06,24,03,29,9.70
2011,06,24,03,30,9.70
2011,06,24,03,31,9.70
2011,06,24,03,32,9.70
2011,06,24,03,33,9.60
2011,06,24,03,34,9.60
2011,06,24,03,35,9.60
2011,06,24,03,36,9.60
2011,06,24,03,37,9.60
2011,06,24,03,38,9.60
2011,06,24,03,39,9.60
2011,06,24,03,40,9.60
2011,06,24,03,41,9.60
2011,06,24,03,42,9.60
2011,06,24,03,43,9.60
2011,06,24,03,44,9.60
2011,06,24,03,45,9.60
2011,06,24,03,46,9.60
2011,06,24,03,47,9.60
2011,06,24,03,48,9.50
2011,06,24,03,49,9.50
2011,06,24,03,50,9.40
2011,06,24,03,51,9.40
2011,06,24,03,52,9.40
2011,06,24,03,53,9.40
2011,06,24,03,54,9.40
2011,06,24,03,55,9.40
2011,06,24,03,56,9.30
2011,06,24,03,57,9.30
2011,06,24,03,58,9.30
2011,06,24,03,59,9.30
2011,06,24,04,00,9.30
2011,06,24,04,01,9.30
2011,06,24,04,02,9.30
2011,06,24,04,03,9.30
2011,06,24,04,04,9.30
2011,06,24,04,05,9.30
2011,06,24,04,06,9.30
2011,06,24,04,07,9.30
2011,06,24,04,08,9.30
2011,06,24,04,09,9.30
2011,06,24,04,10,9.30
2011,06,24,04,11,9.30
2011,06,24,04,12,9.30
2011,06,24,04,13,9.30
2011,06,24,04,14,9.30
2011,06,24,04,15,9.30
2011,06,24,04,16,9.30
2011,06,24,04,17,9.30
2011,06,24,04,18,9.30
2011,06,24,04,19,9.30
2011,06,24,04,20,9.30
2011,06,24,04,21,9.40
2011,06,24,04,22,9.40
2011,06,24,04,23,9.40
2011,06,24,04,24,9.40
2011,06,24,04,25,9.40
2011,06,24,04,26,9.40
2011,06,24,04,27,9.40
2011,06,24,04,28,9.40
2011,06,24,04,29,9.40
2011,06,24,04,30,9.40
2011,06,24,04,31,9.50
2011,06,24,04,32,9.50
2011,06,24,04,33,9.50
2011,06,24,04,34,9.60
2011,06,24,04,35,9.60
2011,06,24,04,36,9.60
2011,06,24,04,37,9.60
2011,06,24,04,38,9.60
2011,06,24,04,39,9.60
2011,06,24,04,40,9.60
2011,06,24,04,41,9.60
2011,06,24,04,42,9.60
2011,06,24,04,43,9.70
2011,06,24,04,44,9.70
2011,06,24,04,45,9.70
2011,06,24,04,46,9.70
2011,06,24,04,47,9.70
2011,06,24,04,48,9.70
2011,06,24,04,49,9.70
2011,06,24,04,50,9.70
2011,06,24,04,51,9.70
2011,06,24,04,52,9.80
2011,06,24,04,53,9.80
2011,06,24,04,54,9.80
2011,06,24,04,55,9.80
2011,06,24,04,56,9.80
2011,06,24,04,57,9.80
2011,06,24,04,58,9.80
2011,06,24,04,59,9.80
2011,06,24,05,00,9.80
2011,06,24,05,01,9.80
2011,06,24,05,02,9.80
2011,06,24,05,03,9.80
2011,06,24,05,04,9.80
2011,06,24,05,05,9.80
2011,06,24,05,06,9.80
2011,06,24,05,07,9.80
2011,06,24,05,08,9.80
2011,06,24,05,09,9.80
2011,06,24,05,10,9.80
2011,06,24,05,11,9.80
2011,06,24,05,12,9.80
2011,06,24,05,13,9.80
2011,06,24,05,14,9.80
2011,06,24,05,15,9.80
2011,06,24,05,16,9.80
2011,06,24,05,17,9.80
2011,06,24,05,18,9.70
2011,06,24,05,19,9.70
2011,06,24,05,20,9.70
2011,06,24,05,21,9.70
2011,06,24,05,22,9.70
2011,06,24,05,23,9.70
2011,06,24,05,24,9.70
2011,06,24,05,25,9.70
2011,06,24,05,26,9.70
2011,06,24,05,27,9.60
2011,06,24,05,28,9.60
2011,06,24,05,29,9.60
2011,06,24,05,30,9.60
2011,06,24,05,31,9.60
2011,06,24,05,32,9.60
2011,06,24,05,33,9.60
2011,06,24,05,34,9.60
2011,06,24,05,35,9.60
2011,06,24,05,36,9.60
2011,06,24,05,37,9.60
2011,06,24,05,38,9.60
2011,06,24,05,41,9.60
2011,06,24,09,35,14.70
2011,06,24,09,36,14.70
2011,06,24,09,37,14.70
2011,06,24,09,38,14.80
2011,06,24,09,39,14.80
2011,06,24,09,40,14.90
2011,06,24,09,41,15.00
2011,06,24,09,42,15.00
2011,06,24,09,43,15.00
2011,06,24,09,44,15.00
2011,06,24,09,45,15.00
2011,06,24,09,46,15.00
2011,06,24,09,47,15.00
2011,06,24,09,48,15.00
2011,06,24,09,49,15.00
2011,06,24,09,50,15.00
2011,06,24,09,51,15.00
2011,06,24,09,52,15.10
2011,06,24,09,53,15.10
2011,06,24,09,54,15.20
2011,06,24,09,55,15.20
2011,06,24,09,56,15.30
2011,06,24,09,57,15.20
2011,06,24,09,58,15.20
2011,06,24,09,59,15.10
2011,06,24,10,00,15.10
2011,06,24,10,01,15.10
2011,06,24,10,02,15.10
2011,06,24,10,03,15.00
2011,06,24,10,04,15.00
2011,06,24,10,05,15.00
2011,06,24,10,06,15.00
2011,06,24,10,07,15.00
2011,06,24,10,08,14.90
2011,06,24,10,09,14.80
2011,06,24,10,10,14.80
2011,06,24,10,11,14.70
2011,06,24,10,12,14.70
2011,06,24,10,13,14.60
2011,06,24,10,14,14.50
2011,06,24,10,15,14.40
2011,06,24,10,16,14.40
2011,06,24,10,17,14.30
2011,06,24,10,18,14.30
2011,06,24,10,19,14.30
2011,06,24,10,20,14.30
2011,06,24,10,21,14.20
2011,06,24,10,22,14.20
2011,06,24,10,23,14.10
2011,06,24,10,24,14.00
2011,06,24,10,25,13.90
2011,06,24,10,26,13.80
2011,06,24,10,27,13.80
2011,06,24,10,28,13.70
2011,06,24,10,29,13.70
2011,06,24,10,30,13.60
2011,06,24,10,31,13.50
2011,06,24,10,32,13.50
2011,06,24,10,33,13.40
2011,06,24,10,34,13.40
2011,06,24,10,35,13.40
2011,06,24,10,36,13.40
2011,06,24,10,37,13.40
2011,06,24,10,38,13.40
2011,06,24,10,39,13.40
2011,06,24,10,40,13.50
2011,06,24,10,41,13.50
2011,06,24,10,42,13.60
2011,06,24,10,43,13.60
2011,06,24,10,44,13.70
2011,06,24,10,45,13.70
2011,06,24,10,46,13.70
2011,06,24,10,47,13.80
2011,06,24,10,48,13.80
2011,06,24,10,49,13.80
2011,06,24,10,50,13.80
2011,06,24,10,51,13.80
2011,06,24,10,52,13.80
2011,06,24,10,53,13.80
2011,06,24,10,54,13.80
2011,06,24,10,55,13.80
2011,06,24,10,56,13.80
2011,06,24,10,57,13.80
2011,06,24,10,58,13.70
2011,06,24,10,59,13.80
2011,06,24,11,00,13.80
2011,06,24,11,01,13.80
2011,06,24,11,02,13.80
2011,06,24,11,03,13.90
2011,06,24,11,04,13.90
2011,06,24,11,05,14.00
2011,06,24,11,06,14.00
2011,06,24,11,07,14.10
2011,06,24,11,08,14.10
2011,06,24,11,09,14.10
2011,06,24,11,10,14.20
2011,06,24,11,11,14.20
2011,06,24,11,12,14.20
2011,06,24,11,13,14.30
2011,06,24,11,14,14.30
2011,06,24,11,15,14.40
2011,06,24,11,16,14.40
2011,06,24,11,17,14.40
2011,06,24,11,18,14.40
2011,06,24,11,19,14.40
2011,06,24,11,20,14.40
2011,06,24,11,21,14.40
2011,06,24,11,22,14.40
2011,06,24,11,23,14.40
2011,06,24,11,24,14.40
2011,06,24,11,25,14.30
2011,06,24,11,26,14.30
2011,06,24,11,27,14.30
2011,06,24,11,28,14.30
2011,06,24,11,29,14.30
2011,06,24,11,30,14.20
2011,06,24,11,31,14.20
2011,06,24,11,32,14.20
2011,06,24,11,33,14.10
2011,06,24,11,34,14.10
2011,06,24,11,35,14.10
2011,06,24,11,36,14.10
2011,06,24,11,37,14.10
2011,06,24,11,38,14.10
2011,06,24,11,39,14.10
2011,06,24,11,40,14.10
2011,06,24,11,41,14.10
2011,06,24,11,42,14.10
2011,06,24,11,43,14.10
2011,06,24,11,44,14.20
2011,06,24,11,45,14.20
2011,06,24,11,46,14.30
2011,06,24,11,47,14.30
2011,06,24,11,48,14.40
2011,06,24,11,49,14.50
2011,06,24,11,50,14.60
2011,06,24,11,51,14.70
2011,06,24,11,52,14.80
2011,06,24,11,53,14.80
2011,06,24,11,54,14.80
2011,06,24,11,55,14.80
2011,06,24,11,56,14.80
2011,06,24,11,57,14.80
2011,06,24,11,58,14.80
2011,06,24,11,59,14.80
2011,06,24,12,00,14.80
2011,06,24,12,01,14.90
2011,06,24,12,02,14.90
2011,06,24,12,03,14.90
2011,06,24,12,04,14.90
2011,06,24,12,05,14.90
2011,06,24,12,06,14.90
2011,06,24,12,07,14.80
2011,06,24,12,08,14.80
2011,06,24,12,09,14.70
2011,06,24,12,10,14.70
2011,06,24,12,11,14.70
2011,06,24,12,12,14.70
2011,06,24,12,13,14.70
2011,06,24,12,14,14.70
2011,06,24,12,15,14.70
2011,06,24,12,16,14.70
2011,06,24,12,17,14.70
2011,06,24,12,18,14.70
2011,06,24,12,19,14.70
2011,06,24,12,20,14.70
2011,06,24,12,21,14.70
2011,06,24,12,22,14.70
2011,06,24,12,23,14.70
2011,06,24,12,24,14.70
2011,06,24,12,25,14.70
2011,06,24,12,26,14.70
2011,06,24,12,27,14.70
2011,06,24,12,28,14.70
2011,06,24,12,29,14.80
2011,06,24,12,30,14.80
2011,06,24,12,31,14.90
2011,06,24,12,32,14.90
2011,06,24,12,33,15.00
2011,06,24,12,34,15.00
2011,06,24,12,35,15.00
2011,06,24,12,36,15.00
2011,06,24,12,37,15.00
2011,06,24,12,38,15.00
2011,06,24,12,39,15.00
2011,06,24,12,40,15.00
2011,06,24,12,41,15.00
2011,06,24,12,42,15.00
2011,06,24,12,43,15.00
2011,06,24,12,44,15.00
2011,06,24,12,45,15.00
2011,06,24,12,46,15.00
2011,06,24,12,47,15.00
2011,06,24,12,48,15.00
2011,06,24,12,49,15.00
2011,06,24,12,50,15.00
2011,06,24,12,51,15.00
2011,06,24,12,52,15.00
2011,06,24,12,53,15.00
2011,06,24,12,54,15.00
2011,06,24,12,55,15.00
2011,06,24,12,56,15.00
2011,06,24,12,57,15.00
2011,06,24,12,58,15.00
2011,06,24,12,59,15.00
2011,06,24,13,00,15.10
2011,06,24,13,01,15.10
2011,06,24,13,02,15.20
2011,06,24,13,03,15.20
2011,06,24,13,04,15.20
2011,06,24,13,05,15.20
2011,06,24,13,06,15.20
2011,06,24,13,07,15.20
2011,06,24,13,08,15.20
2011,06,24,13,09,15.20
2011,06,24,13,10,15.20
2011,06,24,13,11,15.10
2011,06,24,13,12,15.10
2011,06,24,13,13,15.10
2011,06,24,13,14,15.20
2011,06,24,13,15,15.30
2011,06,24,13,16,15.40
2011,06,24,13,17,15.60
2011,06,24,13,18,15.60
2011,06,24,13,19,15.60
2011,06,24,13,20,15.50
2011,06,24,13,21,15.50
2011,06,24,13,22,15.40
2011,06,24,13,23,15.40
2011,06,24,13,24,15.20
2011,06,24,13,25,15.00
2011,06,24,13,26,15.00
2011,06,24,13,27,15.00
2011,06,24,13,28,15.00
2011,06,24,13,29,15.00
2011,06,24,13,30,15.00
2011,06,24,13,31,15.00
2011,06,24,13,32,15.20
2011,06,24,13,33,15.30
2011,06,24,13,34,15.40
2011,06,24,13,35,15.50
2011,06,24,13,36,15.50
2011,06,24,13,37,15.40
2011,06,24,13,38,15.40
2011,06,24,13,39,15.30
2011,06,24,13,40,15.20
2011,06,24,13,41,15.20
2011,06,24,13,42,15.20
2011,06,24,13,43,15.20
2011,06,24,13,44,15.30
2011,06,24,13,45,15.40
2011,06,24,13,46,15.60
2011,06,24,13,47,15.80
2011,06,24,13,48,15.90
2011,06,24,13,49,16.10
2011,06,24,13,50,16.20
2011,06,24,13,51,16.20
2011,06,24,13,52,16.30
2011,06,24,13,53,16.20
2011,06,24,13,54,16.20
2011,06,24,13,55,16.10
2011,06,24,13,56,16.00
2011,06,24,13,57,16.00
2011,06,24,13,58,16.10
2011,06,24,13,59,16.10
2011,06,24,14,00,15.90
2011,06,24,14,01,15.80
2011,06,24,14,02,15.80
2011,06,24,14,03,15.70
2011,06,24,14,04,15.70
2011,06,24,14,05,15.60
2011,06,24,14,06,15.40
2011,06,24,14,07,15.20
2011,06,24,14,08,15.00
2011,06,24,14,09,15.00
2011,06,24,14,10,14.90
2011,06,24,14,11,14.80
2011,06,24,14,12,14.60
2011,06,24,14,13,14.60
2011,06,24,14,14,14.50
2011,06,24,14,15,14.50
2011,06,24,14,16,14.40
2011,06,24,14,17,14.40
2011,06,24,14,18,14.50
2011,06,24,14,19,14.50
2011,06,24,14,20,14.40
2011,06,24,14,21,14.50
2011,06,24,14,22,14.60
2011,06,24,14,23,14.60
2011,06,24,14,24,14.70
2011,06,24,14,25,14.80
2011,06,24,14,26,15.00
2011,06,24,14,27,15.00
2011,06,24,14,28,15.00
2011,06,24,14,29,15.00
2011,06,24,14,30,15.00
2011,06,24,14,31,15.00
2011,06,24,14,32,15.00
2011,06,24,14,33,15.00
2011,06,24,14,34,15.00
2011,06,24,14,35,15.00
2011,06,24,14,36,15.00
2011,06,24,14,37,15.00
2011,06,24,14,38,15.00
2011,06,24,14,39,14.90
2011,06,24,14,40,14.80
2011,06,24,14,41,14.80
2011,06,24,14,42,14.80
2011,06,24,14,43,14.90
2011,06,24,14,44,14.90
2011,06,24,14,45,15.00
2011,06,24,14,46,15.00
2011,06,24,14,47,15.00
2011,06,24,14,48,15.00
2011,06,24,14,49,15.00
2011,06,24,14,50,15.10
2011,06,24,14,51,15.20
2011,06,24,14,52,15.30
2011,06,24,14,53,15.60
2011,06,24,14,54,15.70
2011,06,24,14,55,15.70
2011,06,24,14,56,15.70
2011,06,24,14,57,15.60
2011,06,24,14,58,15.60
2011,06,24,14,59,15.40
2011,06,24,15,00,15.40
2011,06,24,15,01,15.40
2011,06,24,15,02,15.30
2011,06,24,15,03,15.40
2011,06,24,15,04,15.40
2011,06,24,15,05,15.50
2011,06,24,15,06,15.50
2011,06,24,15,07,15.50
2011,06,24,15,08,15.50
2011,06,24,15,09,15.50
2011,06,24,15,10,15.40
2011,06,24,15,11,15.40
2011,06,24,15,12,15.40
2011,06,24,15,13,15.40
2011,06,24,15,14,15.40
2011,06,24,15,15,15.40
2011,06,24,15,16,15.40
2011,06,24,15,17,15.40
2011,06,24,15,18,15.30
2011,06,24,15,19,15.30
2011,06,24,15,20,15.30
2011,06,24,15,21,15.30
2011,06,24,15,22,15.30
2011,06,24,15,23,15.30
2011,06,24,15,24,15.30
2011,06,24,15,25,15.40
2011,06,24,15,26,15.40
2011,06,24,15,27,15.50
2011,06,24,15,28,15.60
2011,06,24,15,29,15.70
2011,06,24,15,30,15.80
2011,06,24,15,31,15.80
2011,06,24,15,32,15.80
2011,06,24,15,33,15.80
2011,06,24,15,34,15.80
2011,06,24,15,35,15.80
2011,06,24,15,36,15.80
2011,06,24,15,37,15.80
2011,06,24,15,38,15.70
2011,06,24,15,39,15.60
2011,06,24,15,40,15.60
2011,06,24,15,41,15.60
2011,06,24,15,42,15.50
2011,06,24,15,43,15.50
2011,06,24,15,44,15.50
2011,06,24,15,45,15.50
2011,06,24,15,46,15.50
2011,06,24,15,47,15.60
2011,06,24,15,48,15.70
2011,06,24,15,49,15.80
2011,06,24,15,50,15.90
2011,06,24,15,51,16.00
2011,06,24,15,52,16.00
2011,06,24,15,53,15.90
2011,06,24,15,54,15.90
2011,06,24,15,55,15.80
2011,06,24,15,56,15.80
2011,06,24,15,57,15.80
2011,06,24,15,58,15.80
2011,06,24,15,59,15.80
2011,06,24,16,00,15.80
2011,06,24,16,01,15.80
2011,06,24,16,02,15.80
2011,06,24,16,03,15.80
2011,06,24,16,04,15.80
2011,06,24,16,05,15.80
2011,06,24,16,06,15.80
2011,06,24,16,07,15.80
2011,06,24,16,08,15.80
2011,06,24,16,09,15.70
2011,06,24,16,10,15.70
2011,06,24,16,11,15.70
2011,06,24,16,12,15.70
2011,06,24,16,13,15.70
2011,06,24,16,14,15.70
2011,06,24,16,15,15.70
2011,06,24,16,16,15.60
2011,06,24,16,17,15.70
2011,06,24,16,18,15.70
2011,06,24,16,19,15.60
2011,06,24,16,20,15.70
2011,06,24,16,21,15.70
2011,06,24,16,22,15.70
2011,06,24,16,23,15.70
2011,06,24,16,24,15.70
2011,06,24,16,25,15.70
2011,06,24,16,26,15.70
2011,06,24,16,27,15.70
2011,06,24,16,28,15.70
2011,06,24,16,29,15.70
2011,06,24,16,30,15.70
2011,06,24,16,31,15.80
2011,06,24,16,32,15.80
2011,06,24,16,33,15.80
2011,06,24,16,34,15.80
2011,06,24,16,35,15.80
2011,06,24,16,36,15.80
2011,06,24,16,37,15.70
2011,06,24,16,38,15.70
2011,06,24,16,40,15.70
2011,06,24,16,41,15.70
2011,06,24,16,42,15.70
2011,06,24,16,43,15.70
2011,06,24,16,44,15.70
2011,06,24,16,45,15.70
2011,06,24,16,46,15.70
2011,06,24,16,47,15.80
2011,06,24,16,48,15.80
2011,06,24,16,49,15.70
2011,06,24,16,50,15.70
2011,06,24,16,51,15.70
2011,06,24,16,52,15.70
2011,06,24,16,53,15.70
2011,06,24,16,54,15.60
2011,06,24,16,55,15.60
2011,06,24,16,56,15.60
2011,06,24,16,57,15.60
2011,06,24,16,58,15.60
2011,06,24,16,59,15.60
2011,06,24,17,00,15.50
2011,06,24,17,01,15.50
2011,06,24,17,02,15.40
2011,06,24,17,03,15.40
2011,06,24,17,04,15.30
2011,06,24,17,05,15.10
2011,06,24,17,06,15.00
2011,06,24,17,07,15.00
2011,06,24,17,08,14.80
2011,06,24,17,09,14.80
2011,06,24,17,10,14.70
2011,06,24,17,11,14.60
2011,06,24,17,12,14.50
2011,06,24,17,13,14.40
2011,06,24,17,14,14.40
2011,06,24,17,15,14.30
2011,06,24,17,16,14.20
2011,06,24,17,17,14.20
2011,06,24,17,18,14.10
2011,06,24,17,19,14.00
2011,06,24,17,20,13.90
2011,06,24,17,21,13.80
2011,06,24,17,22,13.80
2011,06,24,17,23,13.80
2011,06,24,17,24,13.80
2011,06,24,17,25,13.70
2011,06,24,17,26,13.70
2011,06,24,17,27,13.60
2011,06,24,17,28,13.60
2011,06,24,17,29,13.60
2011,06,24,17,30,13.60
2011,06,24,17,31,13.60
2011,06,24,17,32,13.60
2011,06,24,17,33,13.50
2011,06,24,17,34,13.50
2011,06,24,17,35,13.50
2011,06,24,17,36,13.40
2011,06,24,17,37,13.40
2011,06,24,17,38,13.40
2011,06,24,17,39,13.40
2011,06,24,17,40,13.40
2011,06,24,17,41,13.40
2011,06,24,17,42,13.40
2011,06,24,17,43,13.40
2011,06,24,17,44,13.40
2011,06,24,17,45,13.30
2011,06,24,17,46,13.30
2011,06,24,17,47,13.30
2011,06,24,17,48,13.30
2011,06,24,17,49,13.30
2011,06,24,17,50,13.30
2011,06,24,17,51,13.30
2011,06,24,17,52,13.30
2011,06,24,17,53,13.30
2011,06,24,17,54,13.20
2011,06,24,17,55,13.20
2011,06,24,17,56,13.20
2011,06,24,17,57,13.20
2011,06,24,17,58,13.20
2011,06,24,17,59,13.20
2011,06,24,18,00,13.10
2011,06,24,18,01,13.10
2011,06,24,18,02,13.10
2011,06,24,18,03,13.10
2011,06,24,18,04,13.10
2011,06,24,18,05,13.10
2011,06,24,18,06,13.10
2011,06,24,18,07,13.10
2011,06,24,18,08,13.10
2011,06,24,18,09,13.10
2011,06,24,18,10,13.10
2011,06,24,18,11,13.10
2011,06,24,18,12,13.10
2011,06,24,18,13,13.10
2011,06,24,18,14,13.10
2011,06,24,18,15,13.10
2011,06,24,18,16,13.10
2011,06,24,18,17,13.10
2011,06,24,18,18,13.10
2011,06,24,18,19,13.10
2011,06,24,18,20,13.10
2011,06,24,18,21,13.10
2011,06,24,18,22,13.00
2011,06,24,18,23,13.00
2011,06,24,18,24,13.00
2011,06,24,18,25,13.00
2011,06,24,18,26,13.00
2011,06,24,18,27,13.00
2011,06,24,18,28,13.00
2011,06,24,18,29,13.00
2011,06,24,18,30,13.00
2011,06,24,18,31,13.00
2011,06,24,18,32,12.90
2011,06,24,18,33,12.90
2011,06,24,18,34,12.90
2011,06,24,18,35,12.90
2011,06,24,18,36,12.90
2011,06,24,18,37,12.90
2011,06,24,18,38,12.90
2011,06,24,18,39,12.90
2011,06,24,18,40,12.90
2011,06,24,18,41,12.90
2011,06,24,18,42,12.90
2011,06,24,18,43,12.90
2011,06,24,18,44,12.90
2011,06,24,18,45,12.90
2011,06,24,18,46,12.90
2011,06,24,18,47,12.90
2011,06,24,18,48,12.90
2011,06,24,18,49,12.90
2011,06,24,18,50,12.90
2011,06,24,18,51,12.90
2011,06,24,18,52,12.90
2011,06,24,18,53,12.90
2011,06,24,18,54,12.80
2011,06,24,18,55,12.80
2011,06,24,18,56,12.80
2011,06,24,18,57,12.80
2011,06,24,18,58,12.80
2011,06,24,18,59,12.80
2011,06,24,19,00,12.70
2011,06,24,19,01,12.70
2011,06,24,19,02,12.70
2011,06,24,19,03,12.70
2011,06,24,19,04,12.80
2011,06,24,19,05,12.80
2011,06,24,19,06,12.90
2011,06,24,19,07,12.90
2011,06,24,19,08,13.00
2011,06,24,19,09,13.10
2011,06,24,19,10,13.10
2011,06,24,19,11,13.10
2011,06,24,19,12,13.10
2011,06,24,19,13,13.10
2011,06,24,19,14,13.20
2011,06,24,19,15,13.10
2011,06,24,19,16,13.20
2011,06,24,19,17,13.10
2011,06,24,19,18,13.10
2011,06,24,19,19,13.10
2011,06,24,19,20,13.10
2011,06,24,19,21,13.10
2011,06,24,19,22,13.10
2011,06,24,19,23,13.10
2011,06,24,19,24,13.10
2011,06,24,19,25,13.10
2011,06,24,19,26,13.10
2011,06,24,19,27,13.10
2011,06,24,19,28,13.10
2011,06,24,19,29,13.10
2011,06,24,19,30,13.00
2011,06,24,19,31,13.00
2011,06,24,19,32,13.00
2011,06,24,19,33,13.00
2011,06,24,19,34,13.00
2011,06,24,19,35,13.00
2011,06,24,19,36,12.90
2011,06,24,19,37,13.00
2011,06,24,19,38,13.00
2011,06,24,19,39,13.00
2011,06,24,19,40,13.00
2011,06,24,19,41,13.00
2011,06,24,19,42,13.00
2011,06,24,19,43,13.10
2011,06,24,19,44,13.10
2011,06,24,19,45,13.10
2011,06,24,19,46,13.10
2011,06,24,19,47,13.10
2011,06,24,19,48,13.10
2011,06,24,19,49,13.10
2011,06,24,19,50,13.10
2011,06,24,19,51,13.20
2011,06,24,19,52,13.20
2011,06,24,19,53,13.20
2011,06,24,19,54,13.20
2011,06,24,19,55,13.20
2011,06,24,19,56,13.20
2011,06,24,19,57,13.30
2011,06,24,19,58,13.30
2011,06,24,19,59,13.30
2011,06,24,20,00,13.30
2011,06,24,20,01,13.30
2011,06,24,20,02,13.30
2011,06,24,20,03,13.40
2011,06,24,20,04,13.40
2011,06,24,20,05,13.40
2011,06,24,20,06,13.40
2011,06,24,20,07,13.40
2011,06,24,20,08,13.40
2011,06,24,20,09,13.40
2011,06,24,20,10,13.40
2011,06,24,20,11,13.40
2011,06,24,20,12,13.50
2011,06,24,20,13,13.40
2011,06,24,20,14,13.40
2011,06,24,20,15,13.40
2011,06,24,20,16,13.40
2011,06,24,20,17,13.40
2011,06,24,20,18,13.40
2011,06,24,20,19,13.40
2011,06,24,20,20,13.40
2011,06,24,20,21,13.40
2011,06,24,20,22,13.30
2011,06,24,20,23,13.30
2011,06,24,20,24,13.30
2011,06,24,20,25,13.30
2011,06,24,20,26,13.30
2011,06,24,20,27,13.30
2011,06,24,20,28,13.30
2011,06,24,20,29,13.30
2011,06,24,20,30,13.30
2011,06,24,20,31,13.20
2011,06,24,20,32,13.20
2011,06,24,20,33,13.20
2011,06,24,20,34,13.20
2011,06,24,20,35,13.20
2011,06,24,20,36,13.20
2011,06,24,20,37,13.20
2011,06,24,20,38,13.20
2011,06,24,20,39,13.20
2011,06,24,20,40,13.20
2011,06,24,20,41,13.20
2011,06,24,20,42,13.20
2011,06,24,20,43,13.20
2011,06,24,20,44,13.20
2011,06,24,20,45,13.20
2011,06,24,20,46,13.20
2011,06,24,20,47,13.20
2011,06,24,20,48,13.20
2011,06,24,20,49,13.20
2011,06,24,20,50,13.10
2011,06,24,20,51,13.10
2011,06,24,20,52,13.10
2011,06,24,20,53,13.10
2011,06,24,20,54,13.10
2011,06,24,20,55,13.10
2011,06,24,20,56,13.00
2011,06,24,20,57,12.90
2011,06,24,20,58,12.90
2011,06,24,20,59,12.90
2011,06,24,21,00,12.90
2011,06,24,21,01,12.90
2011,06,24,21,02,12.90
2011,06,24,21,03,12.90
2011,06,24,21,04,12.90
2011,06,24,21,05,12.90
2011,06,24,21,06,12.90
2011,06,24,21,07,12.90
2011,06,24,21,08,12.80
2011,06,24,21,09,12.80
2011,06,24,21,10,12.80
2011,06,24,21,11,12.80
2011,06,24,21,12,12.80
2011,06,24,21,13,12.80
2011,06,24,21,14,12.80
2011,06,24,21,15,12.80
2011,06,24,21,16,12.80
2011,06,24,21,17,12.80
2011,06,24,21,18,12.70
2011,06,24,21,19,12.70
2011,06,24,21,20,12.70
2011,06,24,21,21,12.70
2011,06,24,21,22,12.70